Time,TemperatureF,DewpointF,PressureIn,WindDirection,WindDirectionDegrees,WindSpeedMPH,WindSpeedGustMPH,Humidity,HourlyPrecipIn,Conditions,Clouds,dailyrainin,SoftwareType,DateUTC
2013-01-13 00:01:00,45.7,41.8,30.01,SSE,156,1.1,0.0,86,0.00,,,0.00,WeatherDisplay:10.37,2013-01-13 05:01:00,
2013-01-13 00:02:00,45.7,41.8,30.01,SSE,156,0.0,0.0,86,0.00,,,0.00,WeatherDisplay:10.37,2013-01-13 05:02:00,
2013-01-13 00:07:00,45.5,41.9,30.01,SSE,156,0.0,0.1,87,0.00,,,0.00,WeatherDisplay:10.37,2013-01-13 05:07:00,
2013-01-13 00:12:00,45.7,41.8,30.01,SSE,150,0.0,0.0,86,0.00,,,0.00,WeatherDisplay:10.37,2013-01-13 05:12:00,
2013-01-13 00:17:00,45.8,41.9,30.00,SSE,151,0.0,0.0,86,0.00,,,0.00,WeatherDisplay:10.37,2013-01-13 05:17:00,
2013-01-13 00:23:00,45.9,41.9,30.00,SSE,151,0.0,0.0,86,0.00,,,0.00,WeatherDisplay:10.37,2013-01-13 05:23:00,
2013-01-13 00:28:00,45.9,41.9,30.01,SSE,148,0.0,0.0,86,0.00,,,0.00,WeatherDisplay:10.37,2013-01-13 05:28:00,
2013-01-13 00:33:00,45.9,41.9,30.01,SSE,161,0.0,0.0,86,0.00,,,0.00,WeatherDisplay:10.37,2013-01-13 05:33:00,
2013-01-13 00:38:00,45.9,41.9,30.01,SSE,161,0.0,0.0,86,0.00,,,0.00,WeatherDisplay:10.37,2013-01-13 05:38:00,
2013-01-13 00:43:00,45.8,41.9,30.01,SSE,161,0.0,0.0,86,0.00,,,0.00,WeatherDisplay:10.37,2013-01-13 05:43:00,
2013-01-13 00:48:00,45.7,42.1,30.01,SSE,155,0.0,0.0,87,0.00,,,0.00,WeatherDisplay:10.37,2013-01-13 05:48:00,
2013-01-13 00:53:00,45.9,41.6,30.01,SSE,162,1.1,1.1,85,0.00,,,0.00,WeatherDisplay:10.37,2013-01-13 05:53:00,
2013-01-13 00:58:00,46.0,41.7,30.01,SSE,155,2.3,2.3,85,0.00,,,0.00,WeatherDisplay:10.37,2013-01-13 05:58:00,
2013-01-13 01:03:00,46.0,42.0,30.01,SSE,148,2.3,2.3,86,0.00,,,0.00,WeatherDisplay:10.37,2013-01-13 06:03:00,
2013-01-13 01:08:00,45.8,42.2,30.00,South,173,3.5,3.5,87,0.00,,,0.00,WeatherDisplay:10.37,2013-01-13 06:08:00,
2013-01-13 01:13:00,45.7,42.1,30.00,SSE,159,2.3,2.3,87,0.00,,,0.00,WeatherDisplay:10.37,2013-01-13 06:13:00,
2013-01-13 01:18:00,45.9,41.9,30.00,SE,124,1.1,1.1,86,0.00,,,0.00,WeatherDisplay:10.37,2013-01-13 06:18:00,
2013-01-13 01:23:00,45.9,41.9,29.99,South,188,2.3,2.3,86,0.00,,,0.00,WeatherDisplay:10.37,2013-01-13 06:23:00,
2013-01-13 01:28:00,46.1,42.1,29.99,SE,138,1.1,1.1,86,0.00,,,0.00,WeatherDisplay:10.37,2013-01-13 06:28:00,
2013-01-13 01:33:00,46.0,42.0,29.99,SSE,148,1.1,1.1,86,0.00,,,0.00,WeatherDisplay:10.37,2013-01-13 06:33:00,
2013-01-13 01:38:00,46.0,42.0,30.00,SSE,148,3.5,3.5,86,0.00,,,0.00,WeatherDisplay:10.37,2013-01-13 06:38:00,
2013-01-13 01:43:00,46.0,42.0,30.00,SSW,200,1.1,1.1,86,0.00,,,0.00,WeatherDisplay:10.37,2013-01-13 06:43:00,
2013-01-13 01:48:00,46.1,42.1,30.00,SSE,162,0.0,0.0,86,0.00,,,0.00,WeatherDisplay:10.37,2013-01-13 06:48:00,
2013-01-13 01:53:00,46.1,42.1,30.00,South,174,2.3,2.3,86,0.00,,,0.00,WeatherDisplay:10.37,2013-01-13 06:53:00,
2013-01-13 01:58:00,45.9,42.5,30.00,SSE,149,2.3,2.3,88,0.00,,,0.00,WeatherDisplay:10.37,2013-01-13 06:58:00,
2013-01-13 02:03:00,45.9,42.2,30.00,SE,129,1.1,1.1,87,0.00,,,0.00,WeatherDisplay:10.37,2013-01-13 07:03:00,
2013-01-13 02:08:00,46.1,42.1,30.00,SSE,163,2.3,2.3,86,0.00,,,0.00,WeatherDisplay:10.37,2013-01-13 07:08:00,
2013-01-13 02:13:00,46.1,42.1,30.00,SSE,158,1.1,1.1,86,0.00,,,0.00,WeatherDisplay:10.37,2013-01-13 07:13:00,
2013-01-13 02:18:00,46.0,42.6,29.99,SSE,149,2.3,2.3,88,0.00,,,0.00,WeatherDisplay:10.37,2013-01-13 07:18:00,
2013-01-13 02:23:00,46.1,42.4,29.99,SSE,158,1.1,1.1,87,0.00,,,0.00,WeatherDisplay:10.37,2013-01-13 07:23:00,
2013-01-13 02:28:00,46.2,42.5,30.00,SSE,167,1.1,1.1,87,0.00,,,0.00,WeatherDisplay:10.37,2013-01-13 07:28:00,
2013-01-13 02:33:00,46.2,42.5,30.00,SSE,153,1.1,1.1,87,0.00,,,0.00,WeatherDisplay:10.37,2013-01-13 07:33:00,
2013-01-13 02:38:00,46.1,42.7,30.00,SSE,149,2.3,2.3,88,0.00,,,0.00,WeatherDisplay:10.37,2013-01-13 07:38:00,
2013-01-13 02:43:00,46.0,42.6,29.99,SSE,155,0.0,0.0,88,0.00,,,0.00,WeatherDisplay:10.37,2013-01-13 07:43:00,
2013-01-13 02:48:00,45.9,42.5,30.00,SSE,153,0.0,0.3,88,0.00,,,0.00,WeatherDisplay:10.37,2013-01-13 07:48:00,
2013-01-13 02:54:00,45.8,42.4,29.99,SE,141,2.3,2.3,88,0.00,,,0.00,WeatherDisplay:10.37,2013-01-13 07:54:00,
2013-01-13 02:59:00,45.9,42.2,29.99,South,179,3.5,3.5,87,0.00,,,0.00,WeatherDisplay:10.37,2013-01-13 07:59:00,
2013-01-13 03:04:00,46.0,42.3,29.99,SSE,166,2.3,2.3,87,0.00,,,0.00,WeatherDisplay:10.37,2013-01-13 08:04:00,
2013-01-13 03:09:00,46.1,42.1,29.98,SSE,158,1.1,1.1,86,0.00,,,0.00,WeatherDisplay:10.37,2013-01-13 08:09:00,
2013-01-13 03:14:00,46.1,42.4,29.98,SSE,161,2.3,2.3,87,0.00,,,0.00,WeatherDisplay:10.37,2013-01-13 08:14:00,
2013-01-13 03:19:00,45.9,42.5,29.98,SE,141,1.1,0.0,88,0.00,,,0.00,WeatherDisplay:10.37,2013-01-13 08:19:00,
2013-01-13 03:24:00,45.8,42.4,29.97,SSW,197,2.3,2.3,88,0.00,,,0.00,WeatherDisplay:10.37,2013-01-13 08:24:00,
2013-01-13 03:29:00,45.8,42.2,29.97,SSW,207,1.1,1.2,87,0.00,,,0.00,WeatherDisplay:10.37,2013-01-13 08:29:00,
2013-01-13 03:34:00,45.9,41.9,29.97,South,169,2.3,2.3,86,0.00,,,0.00,WeatherDisplay:10.37,2013-01-13 08:34:00,
2013-01-13 03:39:00,45.9,42.2,29.97,SSE,152,2.3,2.3,87,0.00,,,0.00,WeatherDisplay:10.37,2013-01-13 08:39:00,
2013-01-13 03:44:00,45.8,42.2,29.97,SSE,155,2.3,2.3,87,0.00,,,0.00,WeatherDisplay:10.37,2013-01-13 08:44:00,
2013-01-13 03:49:00,45.8,42.2,29.96,SSE,150,2.3,2.3,87,0.00,,,0.00,WeatherDisplay:10.37,2013-01-13 08:49:00,
2013-01-13 03:54:00,45.8,42.2,29.96,SE,142,3.5,3.5,87,0.00,,,0.00,WeatherDisplay:10.37,2013-01-13 08:54:00,
2013-01-13 03:59:00,46.0,42.0,29.95,ESE,121,3.5,3.5,86,0.00,,,0.00,WeatherDisplay:10.37,2013-01-13 08:59:00,
2013-01-13 04:04:00,45.9,42.2,29.94,ESE,120,2.3,2.3,87,0.00,,,0.00,WeatherDisplay:10.37,2013-01-13 09:04:00,
2013-01-13 04:09:00,45.9,42.2,29.94,South,170,2.3,2.3,87,0.00,,,0.00,WeatherDisplay:10.37,2013-01-13 09:09:00,
2013-01-13 04:14:00,46.0,42.3,29.94,SSW,198,4.6,4.6,87,0.00,,,0.00,WeatherDisplay:10.37,2013-01-13 09:14:00,
2013-01-13 04:19:00,46.1,42.7,29.94,SSW,204,4.0,4.0,88,0.00,,,0.00,WeatherDisplay:10.37,2013-01-13 09:19:00,
2013-01-13 04:24:00,46.1,42.7,29.93,South,183,4.6,4.6,88,0.00,,,0.00,WeatherDisplay:10.37,2013-01-13 09:24:00,
2013-01-13 04:29:00,46.2,42.8,29.92,SSW,194,3.5,3.5,88,0.00,,,0.00,WeatherDisplay:10.37,2013-01-13 09:29:00,
2013-01-13 04:34:00,46.2,43.1,29.91,SE,142,2.3,2.3,89,0.00,,,0.00,WeatherDisplay:10.37,2013-01-13 09:34:00,
2013-01-13 04:39:00,46.2,43.1,29.90,South,180,2.3,2.3,89,0.00,,,0.00,WeatherDisplay:10.37,2013-01-13 09:39:00,
2013-01-13 04:44:00,46.1,43.0,29.90,SSE,156,2.3,2.3,89,0.00,,,0.00,WeatherDisplay:10.37,2013-01-13 09:44:00,
2013-01-13 04:49:00,45.9,42.8,29.89,SE,137,2.3,2.3,89,0.00,,,0.00,WeatherDisplay:10.37,2013-01-13 09:49:00,
2013-01-13 04:54:00,45.7,42.6,29.89,ESE,114,3.5,3.5,89,0.00,,,0.00,WeatherDisplay:10.37,2013-01-13 09:54:00,
2013-01-13 04:59:00,45.5,42.4,29.88,SE,139,3.5,3.5,89,0.00,,,0.00,WeatherDisplay:10.37,2013-01-13 09:59:00,
2013-01-13 05:04:00,45.5,42.2,29.87,SE,133,6.9,6.9,88,0.00,,,0.00,WeatherDisplay:10.37,2013-01-13 10:04:00,
2013-01-13 05:09:00,45.5,42.2,29.87,SSE,151,6.9,6.9,88,0.00,,,0.00,WeatherDisplay:10.37,2013-01-13 10:09:00,
2013-01-13 05:14:00,45.5,42.4,29.86,SE,138,3.5,3.5,89,0.00,,,0.00,WeatherDisplay:10.37,2013-01-13 10:14:00,
2013-01-13 05:19:00,45.6,42.0,29.87,SE,138,2.3,2.3,87,0.00,,,0.00,WeatherDisplay:10.37,2013-01-13 10:19:00,
2013-01-13 05:24:00,45.8,42.4,29.87,SE,141,3.5,3.5,88,0.00,,,0.00,WeatherDisplay:10.37,2013-01-13 10:24:00,
2013-01-13 05:29:00,46.0,42.6,29.88,SSW,208,2.3,2.3,88,0.00,,,0.00,WeatherDisplay:10.37,2013-01-13 10:29:00,
2013-01-13 05:34:00,46.2,43.1,29.88,ESE,120,2.3,2.3,89,0.00,,,0.00,WeatherDisplay:10.37,2013-01-13 10:34:00,
2013-01-13 05:39:00,46.3,43.2,29.87,SSW,193,4.6,4.6,89,0.00,,,0.00,WeatherDisplay:10.37,2013-01-13 10:39:00,
2013-01-13 05:44:00,46.3,43.5,29.87,SE,129,3.0,3.0,90,0.00,,,0.00,WeatherDisplay:10.37,2013-01-13 10:44:00,
2013-01-13 05:49:00,46.3,43.5,29.86,South,170,3.5,3.5,90,0.00,,,0.00,WeatherDisplay:10.37,2013-01-13 10:49:00,
2013-01-13 05:54:00,46.4,43.6,29.85,SSE,148,2.3,2.3,90,0.00,,,0.00,WeatherDisplay:10.37,2013-01-13 10:54:00,
2013-01-13 05:59:00,46.5,44.0,29.85,South,169,3.5,3.5,91,0.00,,,0.00,WeatherDisplay:10.37,2013-01-13 10:59:00,
2013-01-13 06:04:00,46.6,44.1,29.85,SSW,198,2.3,2.3,91,0.00,,,0.00,WeatherDisplay:10.37,2013-01-13 11:04:00,
2013-01-13 06:09:00,46.6,44.1,29.86,SSW,201,2.3,2.3,91,0.00,,,0.00,WeatherDisplay:10.37,2013-01-13 11:09:00,
2013-01-13 06:14:00,46.5,44.0,29.86,SE,145,3.5,3.5,91,0.00,,,0.00,WeatherDisplay:10.37,2013-01-13 11:14:00,
2013-01-13 06:19:00,46.6,44.1,29.86,SE,146,8.1,8.1,91,0.00,,,0.00,WeatherDisplay:10.37,2013-01-13 11:19:00,
2013-01-13 06:24:00,46.7,44.2,29.86,SW,217,3.5,3.5,91,0.00,,,0.00,WeatherDisplay:10.37,2013-01-13 11:24:00,
2013-01-13 06:29:00,46.6,44.1,29.86,SSW,193,3.5,3.5,91,0.00,,,0.00,WeatherDisplay:10.37,2013-01-13 11:29:00,
2013-01-13 06:34:00,46.5,44.0,29.85,SSE,165,10.4,10.4,91,0.00,,,0.00,WeatherDisplay:10.37,2013-01-13 11:34:00,
2013-01-13 06:39:00,46.6,44.1,29.85,SSE,165,8.1,8.1,91,0.00,,,0.00,WeatherDisplay:10.37,2013-01-13 11:39:00,
2013-01-13 06:44:00,46.5,44.0,29.84,SE,145,4.0,4.0,91,0.00,,,0.00,WeatherDisplay:10.37,2013-01-13 11:44:00,
2013-01-13 06:49:00,46.4,43.9,29.84,SSE,153,3.5,3.5,91,0.00,,,0.00,WeatherDisplay:10.37,2013-01-13 11:49:00,
2013-01-13 06:54:00,46.4,43.9,29.85,West,260,6.9,6.9,91,0.00,,,0.00,WeatherDisplay:10.37,2013-01-13 11:54:00,
2013-01-13 06:59:00,46.4,43.9,29.85,SE,132,6.9,6.9,91,0.00,,,0.00,WeatherDisplay:10.37,2013-01-13 11:59:00,
2013-01-13 07:04:00,46.2,43.7,29.85,WSW,245,3.5,3.5,91,0.00,,,0.00,WeatherDisplay:10.37,2013-01-13 12:04:00,
2013-01-13 07:09:00,46.2,43.7,29.85,South,179,3.5,3.5,91,0.00,,,0.00,WeatherDisplay:10.37,2013-01-13 12:09:00,
2013-01-13 07:14:00,46.2,43.7,29.86,SE,138,11.5,11.5,91,0.00,,,0.00,WeatherDisplay:10.37,2013-01-13 12:14:00,
2013-01-13 07:19:00,46.2,43.7,29.85,ESE,121,3.5,3.5,91,0.00,,,0.00,WeatherDisplay:10.37,2013-01-13 12:19:00,
2013-01-13 07:24:00,46.1,43.6,29.86,South,172,3.5,3.5,91,0.00,,,0.00,WeatherDisplay:10.37,2013-01-13 12:24:00,
2013-01-13 07:29:00,46.1,43.6,29.86,SSE,153,3.5,3.5,91,0.00,,,0.00,WeatherDisplay:10.37,2013-01-13 12:29:00,
2013-01-13 07:34:00,46.3,43.8,29.86,SE,128,3.5,3.5,91,0.00,,,0.00,WeatherDisplay:10.37,2013-01-13 12:34:00,
2013-01-13 07:39:00,46.4,43.9,29.86,SSW,212,3.5,3.5,91,0.00,,,0.00,WeatherDisplay:10.37,2013-01-13 12:39:00,
2013-01-13 07:44:00,46.5,44.0,29.86,SE,138,3.5,3.5,91,0.00,,,0.00,WeatherDisplay:10.37,2013-01-13 12:44:00,
2013-01-13 07:49:00,46.6,44.1,29.86,SE,138,3.5,3.5,91,0.00,,,0.00,WeatherDisplay:10.37,2013-01-13 12:49:00,
2013-01-13 07:54:00,46.6,44.1,29.86,SSW,201,3.5,3.5,91,0.00,,,0.00,WeatherDisplay:10.37,2013-01-13 12:54:00,
2013-01-13 07:59:00,46.9,44.4,29.87,South,179,3.5,3.5,91,0.00,,,0.00,WeatherDisplay:10.37,2013-01-13 12:59:00,
2013-01-13 08:04:00,47.1,44.6,29.87,SSW,200,3.5,3.5,91,0.00,CLR,,0.00,WeatherDisplay:10.37,2013-01-13 13:04:00,
2013-01-13 08:09:00,47.4,44.9,29.86,SSE,150,3.5,3.5,91,0.00,CLR,,0.00,WeatherDisplay:10.37,2013-01-13 13:09:00,
2013-01-13 08:14:00,47.6,45.1,29.87,SSW,198,3.5,3.5,91,0.00,CLR,,0.00,WeatherDisplay:10.37,2013-01-13 13:14:00,
2013-01-13 08:20:00,47.8,45.3,29.87,SSE,150,3.5,3.5,91,0.00,CLR,,0.00,WeatherDisplay:10.37,2013-01-13 13:20:00,
2013-01-13 09:14:00,51.5,48.7,29.86,SSW,194,10.0,10.0,90,0.00,CLR,,0.00,WeatherDisplay:10.37,2013-01-13 14:14:00,
2013-01-13 09:19:00,51.8,48.7,29.85,SSW,195,3.5,3.5,89,0.00,CLR,,0.00,WeatherDisplay:10.37,2013-01-13 14:19:00,
2013-01-13 09:24:00,52.1,49.0,29.85,SW,219,8.0,8.0,89,0.00,CLR,,0.00,WeatherDisplay:10.37,2013-01-13 14:24:00,
2013-01-13 09:29:00,52.4,48.9,29.84,SW,224,4.6,4.6,88,0.00,CLR,,0.00,WeatherDisplay:10.37,2013-01-13 14:29:00,
2013-01-13 09:34:00,52.6,49.1,29.84,South,180,6.9,6.9,88,0.00,CLR,,0.00,WeatherDisplay:10.37,2013-01-13 14:34:00,
2013-01-13 09:39:00,52.8,49.3,29.84,South,169,4.6,4.6,88,0.00,CLR,,0.00,WeatherDisplay:10.37,2013-01-13 14:39:00,
2013-01-13 09:44:00,52.8,49.3,29.85,SSW,193,4.6,4.6,88,0.00,CLR,,0.00,WeatherDisplay:10.37,2013-01-13 14:44:00,
2013-01-13 09:49:00,52.8,49.3,29.85,South,169,4.0,4.0,88,0.00,CLR,,0.00,WeatherDisplay:10.37,2013-01-13 14:49:00,
2013-01-13 09:54:00,52.8,49.3,29.85,West,264,3.5,3.5,88,0.00,CLR,,0.00,WeatherDisplay:10.37,2013-01-13 14:54:00,
2013-01-13 09:59:00,52.9,49.4,29.85,SSW,203,3.5,3.5,88,0.00,CLR,,0.00,WeatherDisplay:10.37,2013-01-13 14:59:00,
2013-01-13 10:04:00,52.9,49.4,29.85,West,260,3.5,3.5,88,0.00,CLR,,0.00,WeatherDisplay:10.37,2013-01-13 15:04:00,
2013-01-13 10:09:00,53.0,49.5,29.84,SW,222,3.5,3.5,88,0.00,CLR,,0.00,WeatherDisplay:10.37,2013-01-13 15:09:00,
2013-01-13 10:14:00,53.2,49.7,29.84,SSW,207,6.9,6.9,88,0.00,CLR,,0.00,WeatherDisplay:10.37,2013-01-13 15:14:00,
2013-01-13 10:19:00,53.4,49.9,29.84,SW,224,3.5,3.5,88,0.00,CLR,,0.00,WeatherDisplay:10.37,2013-01-13 15:19:00,
2013-01-13 10:24:00,53.5,50.0,29.84,SW,236,5.8,5.8,88,0.00,CLR,,0.00,WeatherDisplay:10.37,2013-01-13 15:24:00,
2013-01-13 10:29:00,53.7,50.2,29.84,SSE,158,4.6,4.6,88,0.00,CLR,,0.00,WeatherDisplay:10.37,2013-01-13 15:29:00,
2013-01-13 10:34:00,53.7,50.2,29.84,SSE,157,3.5,3.5,88,0.00,CLR,,0.00,WeatherDisplay:10.37,2013-01-13 15:34:00,
2013-01-13 10:39:00,53.7,50.2,29.84,SSW,198,5.0,5.0,88,0.00,CLR,,0.00,WeatherDisplay:10.37,2013-01-13 15:39:00,
2013-01-13 10:44:00,53.9,50.4,29.84,ESE,110,6.9,6.9,88,0.00,CLR,,0.00,WeatherDisplay:10.37,2013-01-13 15:44:00,
2013-01-13 10:49:00,54.1,50.6,29.83,SSW,211,4.6,4.6,88,0.00,CLR,,0.00,WeatherDisplay:10.37,2013-01-13 15:49:00,
2013-01-13 10:54:00,54.4,50.6,29.83,SSW,212,9.2,9.2,87,0.00,CLR,,0.00,WeatherDisplay:10.37,2013-01-13 15:54:00,
2013-01-13 10:59:00,54.5,50.7,29.83,SW,217,4.6,4.6,87,0.00,CLR,,0.00,WeatherDisplay:10.37,2013-01-13 15:59:00,
2013-01-13 11:04:00,54.3,50.5,29.83,South,172,5.8,5.8,87,0.00,CLR,,0.00,WeatherDisplay:10.37,2013-01-13 16:04:00,
2013-01-13 11:09:00,54.4,50.6,29.82,SSW,200,5.8,5.8,87,0.00,CLR,,0.00,WeatherDisplay:10.37,2013-01-13 16:09:00,
2013-01-13 11:14:00,54.4,50.6,29.82,SSE,156,4.6,4.6,87,0.00,CLR,,0.00,WeatherDisplay:10.37,2013-01-13 16:14:00,
2013-01-13 11:19:00,54.5,50.7,29.81,South,190,4.6,4.6,87,0.00,CLR,,0.00,WeatherDisplay:10.37,2013-01-13 16:19:00,
2013-01-13 11:24:00,54.4,50.6,29.82,South,186,3.5,3.5,87,0.00,CLR,,0.00,WeatherDisplay:10.37,2013-01-13 16:24:00,
2013-01-13 11:29:00,54.5,50.7,29.81,SW,231,8.1,8.1,87,0.00,CLR,,0.00,WeatherDisplay:10.37,2013-01-13 16:29:00,
2013-01-13 11:34:00,54.6,50.8,29.81,SSE,167,5.8,5.8,87,0.00,CLR,,0.00,WeatherDisplay:10.37,2013-01-13 16:34:00,
2013-01-13 11:39:00,54.5,50.7,29.81,SSW,204,3.5,3.5,87,0.00,CLR,,0.00,WeatherDisplay:10.37,2013-01-13 16:39:00,
2013-01-13 11:44:00,54.7,50.9,29.80,South,187,8.1,8.1,87,0.00,CLR,,0.00,WeatherDisplay:10.37,2013-01-13 16:44:00,
2013-01-13 11:49:00,54.8,50.7,29.80,SW,218,13.8,13.8,86,0.00,CLR,,0.00,WeatherDisplay:10.37,2013-01-13 16:49:00,
2013-01-13 11:54:00,55.0,50.9,29.80,SW,222,13.8,13.8,86,0.00,CLR,,0.00,WeatherDisplay:10.37,2013-01-13 16:54:00,
2013-01-13 11:59:00,55.2,51.1,29.81,SSW,195,9.2,9.2,86,0.00,CLR,,0.00,WeatherDisplay:10.37,2013-01-13 16:59:00,
2013-01-13 12:04:00,55.3,51.2,29.80,SW,228,5.8,5.8,86,0.00,,,0.00,WeatherDisplay:10.37,2013-01-13 17:04:00,
2013-01-13 12:09:00,55.6,51.5,29.80,WSW,240,5.8,5.8,86,0.00,,,0.00,WeatherDisplay:10.37,2013-01-13 17:09:00,
2013-01-13 12:14:00,55.9,51.5,29.80,SE,129,5.8,5.8,85,0.00,,,0.00,WeatherDisplay:10.37,2013-01-13 17:14:00,
2013-01-13 12:19:00,55.9,51.5,29.80,SSW,195,6.9,6.9,85,0.00,,,0.00,WeatherDisplay:10.37,2013-01-13 17:19:00,
2013-01-13 12:24:00,55.8,51.4,29.80,ESE,120,9.2,9.2,85,0.00,,,0.00,WeatherDisplay:10.37,2013-01-13 17:24:00,
2013-01-13 12:29:00,55.9,51.5,29.80,SSW,210,5.8,5.8,85,0.00,,,0.00,WeatherDisplay:10.37,2013-01-13 17:29:00,
2013-01-13 12:34:00,55.9,51.5,29.80,SW,228,6.9,6.9,85,0.00,,,0.00,WeatherDisplay:10.37,2013-01-13 17:34:00,
2013-01-13 12:39:00,56.0,51.6,29.80,South,186,6.0,6.0,85,0.00,,,0.00,WeatherDisplay:10.37,2013-01-13 17:39:00,
2013-01-13 12:44:00,56.1,51.7,29.80,South,172,3.5,3.5,85,0.00,,,0.00,WeatherDisplay:10.37,2013-01-13 17:44:00,
2013-01-13 12:49:00,56.3,51.5,29.80,SSE,167,4.6,4.6,84,0.00,,,0.00,WeatherDisplay:10.37,2013-01-13 17:49:00,
2013-01-13 12:54:00,56.5,51.7,29.80,SSW,203,5.8,5.8,84,0.00,,,0.00,WeatherDisplay:10.37,2013-01-13 17:54:00,
2013-01-13 12:59:00,56.9,51.8,29.79,SSW,201,3.5,3.5,83,0.00,,,0.00,WeatherDisplay:10.37,2013-01-13 17:59:00,
2013-01-13 13:05:00,57.0,51.9,29.79,SSW,207,4.6,4.6,83,0.00,,,0.00,WeatherDisplay:10.37,2013-01-13 18:05:00,
2013-01-13 13:10:00,57.1,52.0,29.79,SSW,205,3.5,3.5,83,0.00,,,0.00,WeatherDisplay:10.37,2013-01-13 18:10:00,
2013-01-13 13:15:00,57.1,52.0,29.79,South,176,3.5,3.5,83,0.00,,,0.00,WeatherDisplay:10.37,2013-01-13 18:15:00,
2013-01-13 13:20:00,57.4,52.3,29.80,SSE,167,3.5,3.5,83,0.00,,,0.00,WeatherDisplay:10.37,2013-01-13 18:20:00,
2013-01-13 13:25:00,58.1,52.6,29.80,SW,231,4.6,4.6,82,0.00,,,0.00,WeatherDisplay:10.37,2013-01-13 18:25:00,
2013-01-13 13:30:00,58.8,52.6,29.80,SSW,198,9.2,9.2,80,0.00,,,0.00,WeatherDisplay:10.37,2013-01-13 18:30:00,
2013-01-13 13:35:00,59.0,52.8,29.80,SW,218,3.5,3.5,80,0.00,,,0.00,WeatherDisplay:10.37,2013-01-13 18:35:00,
2013-01-13 13:40:00,58.9,52.7,29.79,ESE,122,2.3,2.3,80,0.00,,,0.00,WeatherDisplay:10.37,2013-01-13 18:40:00,
2013-01-13 13:45:00,58.7,52.5,29.80,SW,236,3.5,3.5,80,0.00,,,0.00,WeatherDisplay:10.37,2013-01-13 18:45:00,
2013-01-13 13:50:00,58.6,52.4,29.80,SSW,212,2.3,2.3,80,0.00,,,0.00,WeatherDisplay:10.37,2013-01-13 18:50:00,
2013-01-13 13:55:00,58.4,52.3,29.80,SW,224,3.5,3.5,80,0.00,,,0.00,WeatherDisplay:10.37,2013-01-13 18:55:00,
2013-01-13 14:00:00,58.2,52.4,29.80,SE,139,3.5,3.5,81,0.00,,,0.00,WeatherDisplay:10.37,2013-01-13 19:00:00,
2013-01-13 14:05:00,58.2,52.4,29.80,South,170,4.6,4.6,81,0.00,,,0.00,WeatherDisplay:10.37,2013-01-13 19:05:00,
2013-01-13 14:10:00,58.3,52.5,29.80,South,187,3.5,3.5,81,0.00,,,0.00,WeatherDisplay:10.37,2013-01-13 19:10:00,
2013-01-13 14:15:00,58.3,52.5,29.81,SSE,149,6.9,6.9,81,0.00,,,0.00,WeatherDisplay:10.37,2013-01-13 19:15:00,
2013-01-13 14:20:00,58.3,52.5,29.81,SSW,194,2.3,2.3,81,0.00,,,0.00,WeatherDisplay:10.37,2013-01-13 19:20:00,
2013-01-13 14:25:00,58.2,52.4,29.81,South,169,1.1,1.1,81,0.00,,,0.00,WeatherDisplay:10.37,2013-01-13 19:25:00,
2013-01-13 14:30:00,58.3,52.5,29.81,South,187,3.0,3.0,81,0.00,,,0.00,WeatherDisplay:10.37,2013-01-13 19:30:00,
2013-01-13 14:35:00,58.3,52.5,29.81,SSW,207,3.5,3.5,81,0.00,,,0.00,WeatherDisplay:10.37,2013-01-13 19:35:00,
2013-01-13 14:40:00,58.4,52.6,29.81,SE,138,3.5,3.5,81,0.00,,,0.00,WeatherDisplay:10.37,2013-01-13 19:40:00,
2013-01-13 14:45:00,58.3,52.5,29.82,East,96,3.5,3.5,81,0.00,,,0.00,WeatherDisplay:10.37,2013-01-13 19:45:00,
2013-01-13 14:50:00,58.5,52.7,29.82,SSW,208,3.5,3.5,81,0.00,,,0.00,WeatherDisplay:10.37,2013-01-13 19:50:00,
2013-01-13 14:55:00,58.6,52.4,29.83,SSE,165,2.3,2.3,80,0.00,,,0.00,WeatherDisplay:10.37,2013-01-13 19:55:00,
2013-01-13 15:00:00,58.5,52.4,29.83,SSW,209,2.3,2.3,80,0.00,,,0.00,WeatherDisplay:10.37,2013-01-13 20:00:00,
2013-01-13 15:05:00,58.2,52.4,29.84,South,177,1.1,1.1,81,0.00,CLR,,0.00,WeatherDisplay:10.37,2013-01-13 20:05:00,
2013-01-13 15:10:00,58.0,52.2,29.84,SE,129,2.3,2.3,81,0.00,CLR,,0.00,WeatherDisplay:10.37,2013-01-13 20:10:00,
2013-01-13 15:16:00,57.9,52.1,29.84,SSW,205,2.3,2.3,81,0.00,CLR,,0.00,WeatherDisplay:10.37,2013-01-13 20:16:00,
2013-01-13 15:21:00,57.8,52.0,29.84,SW,231,3.5,3.5,81,0.00,CLR,,0.00,WeatherDisplay:10.37,2013-01-13 20:21:00,
2013-01-13 15:26:00,57.6,51.8,29.84,SSE,156,2.3,2.3,81,0.00,CLR,,0.00,WeatherDisplay:10.37,2013-01-13 20:26:00,
2013-01-13 15:31:00,57.6,51.8,29.85,SSW,198,0.0,0.0,81,0.00,CLR,,0.00,WeatherDisplay:10.37,2013-01-13 20:31:00,
2013-01-13 15:36:00,57.5,51.7,29.85,SSW,194,0.0,0.0,81,0.00,CLR,,0.00,WeatherDisplay:10.37,2013-01-13 20:36:00,
2013-01-13 15:41:00,57.5,52.0,29.85,SE,139,3.5,3.5,82,0.00,CLR,,0.00,WeatherDisplay:10.37,2013-01-13 20:41:00,
2013-01-13 15:46:00,57.5,51.7,29.86,East,101,2.3,2.3,81,0.00,CLR,,0.00,WeatherDisplay:10.37,2013-01-13 20:46:00,
2013-01-13 15:51:00,57.5,52.0,29.86,South,187,2.3,2.3,82,0.00,CLR,,0.00,WeatherDisplay:10.37,2013-01-13 20:51:00,
2013-01-13 15:56:00,57.3,51.9,29.86,SW,222,2.0,2.0,82,0.00,CLR,,0.00,WeatherDisplay:10.37,2013-01-13 20:56:00,
2013-01-13 16:01:00,57.1,51.7,29.87,SSE,160,1.1,1.1,82,0.00,CLR,,0.00,WeatherDisplay:10.37,2013-01-13 21:01:00,
2013-01-13 16:06:00,56.9,51.5,29.87,SSW,201,0.0,0.0,82,0.00,CLR,,0.00,WeatherDisplay:10.37,2013-01-13 21:06:00,
2013-01-13 16:11:00,56.9,51.8,29.87,SW,236,0.0,0.0,83,0.00,CLR,,0.00,WeatherDisplay:10.37,2013-01-13 21:11:00,
2013-01-13 16:16:00,56.8,51.7,29.88,SW,236,0.0,0.0,83,0.00,CLR,,0.00,WeatherDisplay:10.37,2013-01-13 21:16:00,
2013-01-13 16:21:00,56.8,51.7,29.88,SSE,160,0.0,0.0,83,0.00,CLR,,0.00,WeatherDisplay:10.37,2013-01-13 21:21:00,
2013-01-13 16:26:00,56.6,51.5,29.88,SE,138,0.0,0.0,83,0.00,CLR,,0.00,WeatherDisplay:10.37,2013-01-13 21:26:00,
2013-01-13 16:31:00,56.4,51.3,29.88,SSE,152,0.0,0.0,83,0.00,CLR,,0.00,WeatherDisplay:10.37,2013-01-13 21:31:00,
2013-01-13 16:36:00,56.3,51.5,29.89,SSE,152,0.0,0.0,84,0.00,CLR,,0.00,WeatherDisplay:10.37,2013-01-13 21:36:00,
2013-01-13 16:41:00,56.2,51.4,29.88,SSE,149,0.0,0.0,84,0.00,CLR,,0.00,WeatherDisplay:10.37,2013-01-13 21:41:00,
2013-01-13 16:46:00,56.1,51.3,29.89,SSE,149,0.0,0.0,84,0.00,CLR,,0.00,WeatherDisplay:10.37,2013-01-13 21:46:00,
2013-01-13 16:51:00,56.0,51.2,29.89,SSE,149,0.0,0.0,84,0.00,CLR,,0.00,WeatherDisplay:10.37,2013-01-13 21:51:00,
2013-01-13 16:56:00,56.0,51.6,29.88,SSE,149,0.0,0.0,85,0.00,CLR,,0.00,WeatherDisplay:10.37,2013-01-13 21:56:00,
2013-01-13 17:01:00,56.1,51.7,29.89,SSE,149,0.0,0.0,85,0.00,,,0.00,WeatherDisplay:10.37,2013-01-13 22:01:00,
2013-01-13 17:06:00,55.8,51.4,29.88,SSE,158,0.0,0.0,85,0.00,,,0.00,WeatherDisplay:10.37,2013-01-13 22:06:00,
2013-01-13 17:11:00,55.4,51.0,29.88,South,188,1.0,1.0,85,0.00,,,0.00,WeatherDisplay:10.37,2013-01-13 22:11:00,
2013-01-13 17:16:00,55.0,50.9,29.88,SSE,161,1.1,1.1,86,0.00,,,0.00,WeatherDisplay:10.37,2013-01-13 22:16:00,
2013-01-13 17:21:00,55.0,51.2,29.88,SSE,162,0.0,0.0,87,0.00,,,0.00,WeatherDisplay:10.37,2013-01-13 22:21:00,
2013-01-13 17:29:00,55.0,50.9,29.88,SSE,158,2.3,2.3,86,0.00,,,0.00,WeatherDisplay:10.37,2013-01-13 22:29:00,
2013-01-13 17:34:00,54.9,51.1,29.89,South,183,1.1,1.1,87,0.00,,,0.00,WeatherDisplay:10.37,2013-01-13 22:34:00,
2013-01-13 17:39:00,54.9,51.1,29.89,South,181,0.0,0.0,87,0.00,,,0.00,WeatherDisplay:10.37,2013-01-13 22:39:00,
2013-01-13 17:44:00,54.9,51.1,29.89,South,181,0.0,0.0,87,0.00,,,0.00,WeatherDisplay:10.37,2013-01-13 22:44:00,
2013-01-13 17:49:00,54.9,51.1,29.89,South,181,0.0,0.0,87,0.00,,,0.00,WeatherDisplay:10.37,2013-01-13 22:49:00,
2013-01-13 17:56:00,54.9,51.1,29.89,SSE,161,0.0,0.0,87,0.00,,,0.00,WeatherDisplay:10.37,2013-01-13 22:56:00,
2013-01-13 18:01:00,54.8,50.7,29.89,SSE,156,0.0,0.0,86,0.00,,,0.00,WeatherDisplay:10.37,2013-01-13 23:01:00,
2013-01-13 18:06:00,54.9,51.1,29.89,SE,135,0.0,0.0,87,0.00,,,0.00,WeatherDisplay:10.37,2013-01-13 23:06:00,
2013-01-13 18:11:00,55.0,50.9,29.89,SSE,150,0.0,0.0,86,0.00,,,0.00,WeatherDisplay:10.37,2013-01-13 23:11:00,
2013-01-13 18:16:00,55.1,51.0,29.89,SSE,160,0.0,0.0,86,0.00,,,0.00,WeatherDisplay:10.37,2013-01-13 23:16:00,
2013-01-13 18:21:00,55.0,50.9,29.89,South,174,0.0,0.0,86,0.00,,,0.00,WeatherDisplay:10.37,2013-01-13 23:21:00,
2013-01-13 18:26:00,55.0,50.9,29.89,SE,133,0.0,0.0,86,0.00,,,0.00,WeatherDisplay:10.37,2013-01-13 23:26:00,
2013-01-13 18:31:00,55.1,51.0,29.89,SSE,153,0.0,0.0,86,0.00,,,0.00,WeatherDisplay:10.37,2013-01-13 23:31:00,
2013-01-13 18:36:00,55.0,50.9,29.88,SSE,152,0.0,0.0,86,0.00,,,0.00,WeatherDisplay:10.37,2013-01-13 23:36:00,
2013-01-13 18:42:00,54.9,50.8,29.89,South,173,0.0,0.0,86,0.00,,,0.00,WeatherDisplay:10.37,2013-01-13 23:42:00,
2013-01-13 18:47:00,55.1,51.0,29.89,SSE,163,2.3,2.3,86,0.00,,,0.00,WeatherDisplay:10.37,2013-01-13 23:47:00,
2013-01-13 18:52:00,55.1,51.0,29.89,SSE,158,1.1,1.1,86,0.00,,,0.00,WeatherDisplay:10.37,2013-01-13 23:52:00,
2013-01-13 18:57:00,55.1,51.0,29.89,SE,136,1.1,1.1,86,0.00,,,0.00,WeatherDisplay:10.37,2013-01-13 23:57:00,
2013-01-13 19:02:00,55.0,50.9,29.88,SSE,162,1.1,1.1,86,0.00,,,0.00,WeatherDisplay:10.37,2013-01-14 00:02:00,
2013-01-13 19:07:00,54.9,50.8,29.88,SSE,165,1.1,1.1,86,0.00,,,0.00,WeatherDisplay:10.37,2013-01-14 00:07:00,
2013-01-13 19:12:00,54.9,50.8,29.88,SSW,203,1.1,1.1,86,0.00,,,0.00,WeatherDisplay:10.37,2013-01-14 00:12:00,
2013-01-13 19:17:00,54.9,51.1,29.88,SSW,207,2.3,2.3,87,0.00,,,0.00,WeatherDisplay:10.37,2013-01-14 00:17:00,
2013-01-13 19:22:00,55.1,51.0,29.89,SSW,198,1.1,1.1,86,0.00,,,0.00,WeatherDisplay:10.37,2013-01-14 00:22:00,
2013-01-13 19:27:00,55.1,51.0,29.89,South,172,1.1,1.1,86,0.00,,,0.00,WeatherDisplay:10.37,2013-01-14 00:27:00,
2013-01-13 19:32:00,55.1,51.0,29.88,SSE,160,0.0,0.0,86,0.00,,,0.00,WeatherDisplay:10.37,2013-01-14 00:32:00,
2013-01-13 19:37:00,55.0,50.9,29.89,SSE,161,0.0,0.0,86,0.00,,,0.00,WeatherDisplay:10.37,2013-01-14 00:37:00,
2013-01-13 19:42:00,54.9,51.1,29.89,SSE,163,2.3,2.3,87,0.00,,,0.00,WeatherDisplay:10.37,2013-01-14 00:42:00,
2013-01-13 19:47:00,54.8,51.0,29.88,SSE,165,1.1,1.1,87,0.00,,,0.00,WeatherDisplay:10.37,2013-01-14 00:47:00,
2013-01-13 19:52:00,54.6,50.8,29.88,SSE,158,1.1,1.1,87,0.00,,,0.00,WeatherDisplay:10.37,2013-01-14 00:52:00,
2013-01-13 19:57:00,54.6,50.8,29.88,SSE,167,1.1,1.1,87,0.00,,,0.00,WeatherDisplay:10.37,2013-01-14 00:57:00,
2013-01-13 20:02:00,54.6,50.8,29.87,SSE,148,1.1,1.1,87,0.00,,,0.00,WeatherDisplay:10.37,2013-01-14 01:02:00,
2013-01-13 20:05:00,54.6,50.8,29.87,SSE,156,1.1,0.0,87,0.00,,,0.00,WeatherDisplay:10.37,2013-01-14 01:05:00,
2013-01-13 20:07:00,54.6,50.8,29.87,SSE,156,1.1,0.0,87,0.00,,,0.00,WeatherDisplay:10.37,2013-01-14 01:07:00,
2013-01-13 20:12:00,54.6,50.8,29.87,SSE,156,1.1,0.0,87,0.00,,,0.00,WeatherDisplay:10.37,2013-01-14 01:12:00,
2013-01-13 21:05:00,54.1,50.3,29.86,SE,146,5.0,5.0,87,0.00,CLR,,0.00,WeatherDisplay:10.37,2013-01-14 02:05:00,
2013-01-13 21:10:00,54.0,50.2,29.86,SSE,166,1.1,1.1,87,0.00,,,0.00,WeatherDisplay:10.37,2013-01-14 02:10:00,
2013-01-13 21:15:00,53.9,50.1,29.86,South,177,1.1,1.1,87,0.00,,,0.00,WeatherDisplay:10.37,2013-01-14 02:15:00,
2013-01-13 21:20:00,53.8,50.0,29.86,SE,142,0.0,0.0,87,0.00,,,0.00,WeatherDisplay:10.37,2013-01-14 02:20:00,
2013-01-13 21:25:00,53.7,49.9,29.86,SSW,204,1.1,1.1,87,0.00,,,0.00,WeatherDisplay:10.37,2013-01-14 02:25:00,
2013-01-13 21:30:00,53.7,50.2,29.86,South,190,1.1,1.1,88,0.00,,,0.00,WeatherDisplay:10.37,2013-01-14 02:30:00,
2013-01-13 21:35:00,53.6,50.1,29.86,SW,214,2.3,2.3,88,0.00,,,0.00,WeatherDisplay:10.37,2013-01-14 02:35:00,
2013-01-13 21:40:00,53.6,50.1,29.86,South,172,2.3,2.3,88,0.00,,,0.00,WeatherDisplay:10.37,2013-01-14 02:40:00,
2013-01-13 21:45:00,53.5,50.0,29.86,SSE,150,0.0,0.0,88,0.00,,,0.00,WeatherDisplay:10.37,2013-01-14 02:45:00,
2013-01-13 21:50:00,53.5,50.0,29.87,SSE,153,1.1,0.0,88,0.00,,,0.00,WeatherDisplay:10.37,2013-01-14 02:50:00,
2013-01-13 21:55:00,53.4,49.9,29.86,SSE,150,2.3,2.3,88,0.00,,,0.00,WeatherDisplay:10.37,2013-01-14 02:55:00,
2013-01-13 22:00:00,53.3,49.8,29.85,East,101,2.3,2.3,88,0.00,,,0.00,WeatherDisplay:10.37,2013-01-14 03:00:00,
2013-01-13 22:05:00,53.2,49.7,29.85,South,172,1.1,1.1,88,0.00,,,0.00,WeatherDisplay:10.37,2013-01-14 03:05:00,
2013-01-13 22:11:00,53.1,49.6,29.84,SSE,156,2.3,2.3,88,0.00,,,0.00,WeatherDisplay:10.37,2013-01-14 03:11:00,
2013-01-13 22:16:00,52.9,49.4,29.83,ESE,112,1.1,1.1,88,0.00,,,0.00,WeatherDisplay:10.37,2013-01-14 03:16:00,
2013-01-13 22:21:00,52.8,49.3,29.83,SSE,155,2.3,2.3,88,0.00,,,0.00,WeatherDisplay:10.37,2013-01-14 03:21:00,
2013-01-13 22:26:00,52.8,49.3,29.84,SSW,198,2.3,2.3,88,0.00,,,0.00,WeatherDisplay:10.37,2013-01-14 03:26:00,
2013-01-13 22:31:00,52.7,49.2,29.84,SE,132,1.1,1.1,88,0.00,,,0.00,WeatherDisplay:10.37,2013-01-14 03:31:00,
2013-01-13 22:36:00,52.7,49.2,29.83,SE,129,1.1,1.1,88,0.00,,,0.00,WeatherDisplay:10.37,2013-01-14 03:36:00,
2013-01-13 22:41:00,52.6,49.1,29.83,South,179,0.0,0.0,88,0.00,,,0.00,WeatherDisplay:10.37,2013-01-14 03:41:00,
2013-01-13 22:46:00,52.4,48.9,29.83,ESE,118,2.3,2.3,88,0.00,,,0.00,WeatherDisplay:10.37,2013-01-14 03:46:00,
2013-01-13 22:51:00,52.3,49.2,29.83,WSW,238,1.1,1.1,89,0.00,,,0.00,WeatherDisplay:10.37,2013-01-14 03:51:00,
2013-01-13 22:56:00,52.2,49.1,29.83,SSE,153,2.3,2.3,89,0.00,,,0.00,WeatherDisplay:10.37,2013-01-14 03:56:00,
2013-01-13 23:01:00,52.2,48.8,29.83,SSW,207,3.5,3.5,88,0.00,,,0.00,WeatherDisplay:10.37,2013-01-14 04:01:00,
2013-01-13 23:06:00,52.2,48.8,29.83,ESE,122,2.0,2.0,88,0.00,,,0.00,WeatherDisplay:10.37,2013-01-14 04:06:00,
2013-01-13 23:11:00,52.1,49.0,29.83,SSW,195,3.5,3.5,89,0.00,,,0.00,WeatherDisplay:10.37,2013-01-14 04:11:00,
2013-01-13 23:16:00,52.0,48.9,29.82,South,191,3.5,3.5,89,0.00,,,0.00,WeatherDisplay:10.37,2013-01-14 04:16:00,
2013-01-13 23:21:00,51.9,48.8,29.82,SSW,193,1.1,0.0,89,0.00,,,0.00,WeatherDisplay:10.37,2013-01-14 04:21:00,
2013-01-13 23:26:00,51.8,48.7,29.82,South,173,2.3,2.3,89,0.00,,,0.00,WeatherDisplay:10.37,2013-01-14 04:26:00,
2013-01-13 23:31:00,51.7,48.6,29.82,SE,146,2.3,2.3,89,0.00,,,0.00,WeatherDisplay:10.37,2013-01-14 04:31:00,
2013-01-13 23:36:00,51.6,48.5,29.81,SSE,167,2.3,2.3,89,0.00,,,0.00,WeatherDisplay:10.37,2013-01-14 04:36:00,
2013-01-13 23:41:00,51.4,48.6,29.81,SSE,153,2.3,2.3,90,0.00,,,0.00,WeatherDisplay:10.37,2013-01-14 04:41:00,
2013-01-13 23:46:00,51.3,48.5,29.81,SSE,148,2.3,2.3,90,0.00,,,0.00,WeatherDisplay:10.37,2013-01-14 04:46:00,
2013-01-13 23:51:00,51.2,48.4,29.81,SW,215,1.1,1.1,90,0.01,RA,,0.01,WeatherDisplay:10.37,2013-01-14 04:51:00,
2013-01-13 23:56:00,51.0,48.2,29.80,ESE,117,2.0,2.0,90,0.01,RA,,0.01,WeatherDisplay:10.37,2013-01-14 04:56:00,